Flag for Argentina Weather past 2 weeks in Jujuy, Jujuy, Argentina

Now
54 °F

Clear.


Feels Like: 51 °F
Forecast: 49 / 73 °F
Wind: 9 mph from Northwest

Location: Jujuy Aerodrome

Current Time: Aug 1, 2015 at 5:08:51 AM

Latest Report: Aug 1, 2015 at 4:00 AM


Visibility: 10 mi

Pressure: 30.04 "Hg (21.23 "Hg at 2895m altitude)

Humidity: 77%

Dew point: 46 °F

Location of JujuyLocation

Historic Weather in Jujuy — Graph

°F

Jujuy temperature yesterday

Maximum temperature yesterday: 82 °F (at 3:00 PM)
Minimum temperature yesterday: 54 °F (at 8:00 AM)
Average temperature yesterday: 68 °F

Past Weeks' High & Low Weather Summary

 TemperatureHumidityPressure
High84 °F (Jul 28, 3:00 PM)94% (Jul 19, 11:00 PM)30.39 "Hg (Jul 19, 11:00 PM)
Low36 °F (Jul 22, 6:00 AM)29% (Jul 28, 3:00 PM)29.77 "Hg (Jul 30, 5:00 PM)
Average57 °F67%30.06 "Hg
* Reported Jul 17 2:00 AM — Aug 1 2:00 AM, Jujuy, Weather by CustomWeather, © 2015

Note: Actual official high and low records may vary slightly from our data, if they occured in-between our weather recording intervals... More about our weather records

Advertising

Jujuy weather history for previous 24 hours

 ConditionsComfort  
Time TempWeatherWind HumidityBarometerVisibility
2:00 AM
Sat, Aug 1
59 °FClear.5 mph68%30.09 "Hg10 mi
1:00 AM59 °FClear.3 mph68%30.09 "Hg10 mi
12:00 AM66 °FClear.5 mph52%30.09 "Hg10 mi
11:00 PM
Fri, Jul 31
66 °FClear.9 mph52%30.09 "Hg10 mi
10:00 PM70 °FClear.15 mph40%30.09 "Hg10 mi
9:00 PM70 °FClear.14 mph38%30.07 "Hg10 mi
8:00 PM68 °FClear.7 mph40%30.01 "Hg10 mi
7:00 PM73 °FClear.9 mph33%29.98 "Hg10 mi
6:00 PM79 °FClear.16 mph30%29.95 "Hg10 mi
5:00 PM81 °FSunny.15 mph30%29.92 "Hg10 mi
4:00 PM81 °FSunny.21 mph32%29.92 "Hg10 mi
3:00 PM82 °FSunny.18 mph30%29.92 "Hg10 mi
2:00 PM81 °FSunny.20 mph32%29.95 "Hg10 mi
1:00 PM81 °FSunny.21 mph37%29.92 "Hg10 mi
12:00 PM75 °FSunny.9 mph54%29.92 "Hg10 mi
10:00 AM66 °FSunny.7 mph68%29.89 "Hg10 mi
9:00 AM57 °FSunny.3 mph77%29.86 "Hg10 mi
8:00 AM54 °FSunny.12 mph88%29.80 "Hg10 mi
7:00 AM57 °FSunny.9 mph82%29.77 "Hg10 mi
6:00 AM55 °FClear.8 mph82%29.77 "Hg10 mi
5:00 AM57 °FClear.9 mph82%29.77 "Hg10 mi
Weather by CustomWeather, © 2015

See weather overviewHow to use our weather pages